TimeEST,TemperatureF,Dew PointF,Humidity,Sea Level PressureIn,VisibilityMPH,Wind Direction,Wind SpeedMPH,Gust SpeedMPH,PrecipitationIn,Events,Conditions,WindDirDegrees,DateUTC
12:37 AM,37.4,30.2,75,30.42,10.0,NE,8.1,-,N/A,,Overcast,50,2012-12-01 05:37:00
12:53 AM,37.9,30.9,76,30.44,10.0,North,5.8,-,N/A,,Overcast,10,2012-12-01 05:53:00
1:53 AM,37.9,30.0,73,30.43,10.0,Variable,5.8,-,N/A,,Overcast,0,2012-12-01 06:53:00
2:53 AM,37.0,30.0,76,30.44,10.0,NE,8.1,-,N/A,,Overcast,50,2012-12-01 07:53:00
3:53 AM,37.4,30.2,75,30.43,10.0,Variable,4.6,-,N/A,,Overcast,0,2012-12-01 08:53:00
4:53 AM,37.4,30.2,75,30.43,10.0,NNE,8.1,-,N/A,,Overcast,30,2012-12-01 09:53:00
5:53 AM,37.0,28.9,73,30.45,10.0,Variable,3.5,-,N/A,,Overcast,0,2012-12-01 10:53:00
6:53 AM,37.0,28.9,73,30.46,10.0,NNE,4.6,-,N/A,,Overcast,30,2012-12-01 11:53:00
7:53 AM,36.0,28.0,73,30.47,10.0,North,-9999.0,-,N/A,,Overcast,0,2012-12-01 12:53:00
8:53 AM,37.0,28.9,73,30.51,10.0,NNE,5.8,-,N/A,,Overcast,30,2012-12-01 13:53:00
9:53 AM,37.0,28.9,73,30.51,10.0,NE,5.8,-,N/A,,Overcast,40,2012-12-01 14:53:00
10:53 AM,39.2,30.2,70,30.49,10.0,East,5.8,-,N/A,,Overcast,90,2012-12-01 15:53:00
11:53 AM,39.9,30.9,70,30.46,10.0,ENE,5.8,-,N/A,,Overcast,60,2012-12-01 16:53:00
12:53 PM,42.1,33.1,70,30.44,10.0,Variable,4.6,-,N/A,,Overcast,0,2012-12-01 17:53:00
1:53 PM,41.0,33.8,76,30.42,10.0,ENE,6.9,-,N/A,,Overcast,60,2012-12-01 18:53:00
2:53 PM,41.0,34.0,76,30.43,10.0,Calm,Calm,-,N/A,,Overcast,0,2012-12-01 19:53:00
3:53 PM,41.0,34.0,76,30.44,9.0,NE,3.5,-,N/A,,Overcast,40,2012-12-01 20:53:00
4:53 PM,39.2,33.8,81,30.45,10.0,NNE,4.6,-,N/A,,Overcast,30,2012-12-01 21:53:00
5:53 PM,39.9,35.1,83,30.46,9.0,NE,5.8,-,N/A,,Overcast,40,2012-12-01 22:53:00
6:22 PM,39.2,35.6,87,30.46,8.0,North,4.6,-,N/A,,Overcast,10,2012-12-01 23:22:00
6:53 PM,39.9,35.1,83,30.47,8.0,NE,3.5,-,N/A,,Overcast,40,2012-12-01 23:53:00
7:53 PM,39.0,35.1,86,30.46,7.0,NE,3.5,-,N/A,,Overcast,40,2012-12-02 00:53:00
8:53 PM,39.0,35.1,86,30.44,6.0,NNE,3.5,-,N/A,,Overcast,30,2012-12-02 01:53:00
9:17 PM,39.2,35.6,87,30.44,5.0,North,4.6,-,N/A,,Overcast,360,2012-12-02 02:17:00
9:53 PM,39.0,37.0,93,30.44,3.0,North,3.5,-,N/A,,Overcast,10,2012-12-02 02:53:00
10:12 PM,39.2,37.4,93,30.43,2.5,Calm,Calm,-,N/A,,Overcast,0,2012-12-02 03:12:00
10:29 PM,39.2,37.4,93,30.43,3.0,Calm,Calm,-,N/A,,Overcast,0,2012-12-02 03:29:00
10:53 PM,39.0,37.9,96,30.43,3.0,Calm,Calm,-,N/A,,Overcast,0,2012-12-02 03:53:00
11:21 PM,39.2,37.4,93,30.42,2.5,Calm,Calm,-,N/A,,Overcast,0,2012-12-02 04:21:00
11:53 PM,39.0,37.9,96,30.42,1.8,Calm,Calm,-,N/A,,Overcast,0,2012-12-02 04:53:00